Location: ????????
(38.4362°N, 22.8767°E)
Time: 04:17:11
(UTC+00:00)

Envisat - Visible Passes

Search period start: 21 June 2024 00:00
Search period end: 01 July 2024 00:00
Orbit: 762 x 764 km, 98.3° (Epoch: 20 June)

Date Brightness Start Highest point End Pass type
(mag) Time Alt. Az. Time Alt. Az. Time Alt. Az.
21 Jun 3.1 01:41:06 10° NNE 01:46:12 80° ESE 01:51:10 10° S visible
22 Jun 4.4 01:04:09 10° NNE 01:08:44 34° E 01:13:17 10° SSE visible
23 Jun 5.4 00:28:20 10° ENE 00:31:04 14° E 00:33:46 10° SE visible
23 Jun 3.1 02:05:23 10° N 02:10:23 59° WNW 02:15:21 10° SSW visible
24 Jun 3.4 01:28:01 10° NNE 01:33:03 59° E 01:37:50 11° S visible
25 Jun 4.8 00:51:20 10° NE 00:55:30 25° E 00:59:39 10° SSE visible
25 Jun 3.8 02:29:56 10° N 02:34:29 34° WNW 02:39:02 10° SW visible
26 Jun 5.7 00:17:06 10° E 00:17:46 10° E 00:18:25 10° E visible
26 Jun 3.0 01:52:11 10° N 01:57:16 80° WNW 02:02:17 10° SSW visible
27 Jun 3.9 01:15:01 10° NNE 01:19:52 44° E 01:24:27 11° S visible
28 Jun 5.2 00:38:42 10° NE 00:42:16 19° E 00:45:47 10° SE visible
28 Jun 3.5 02:16:35 10° N 02:21:25 46° WNW 02:26:13 10° SW visible
29 Jun 3.1 01:39:03 10° NNE 01:44:08 77° ESE 01:48:54 12° S visible
30 Jun 4.4 01:02:06 10° NNE 01:06:39 32° E 01:11:03 11° SSE visible
